Location: Asheville, NC
(35.6000°N, 82.5500°W)
Time: 00:10:15
(UTC-05:00)

N. Korean satellite - Pass Details

Date: 09 October 2017
Orbit: 461 x 513 km, 97.2° (Epoch: 17 December)

Event Time Altitude Azimuth Distance (km) Brightness Sun altitude
Rises 19:45:55 0° 174° (S) 2,571 10.2 -9.7°
Reaches altitude 10° 19:48:01 10° 177° (S) 1,684 9.3 -10.1°
Maximum altitude 19:51:36 65° 260° (W) 541 7.0 -10.8°
Drops below altitude 10° 19:55:10 10° 342° (NNW) 1,665 9.5 -11.5°
Sets 19:57:14 0° 346° (NNW) 2,540 10.4 -12.0°
